Showing default

COSMOS 1909, 18788

Orbit data source: Space-Track

COSMOS 1909, 18788 is a payload satellite owned by UNKS (CIS) in LEO that was launched on Fri, 15 Jan 1988 UTC via a TSIKLON-3 launch vehicle from the Plesetsk Missile And Space Complex (PKMTR). Payload-class satellites include a variety of spacecraft equipped with specific instruments for various scientific and technological missions. These include communications satellites like Starlink; space stations such as the ISS; scientific satellites like the Hubble; Earth observation satellites from companies like Planet Labs, Umbra, and HawkEye 360; GPS; miniature CubeSats for education and research; and military/defense satellites.

Loading next visibility...
Identifier
18788, 1988-002A
Orbit
LEO
Country
Flag of CISCIS
Related business
Manufacturer
NPO PM
Mission
Defense Communications
Bus & Motor
STRELA-3, Unknown motor
Mass
225 kg wet, 225 kg dry
Launch date (UTC)
1988-01-15 (38 years ago)
Launch vehicle
TSIKLON-3
Launch site
Plesetsk Missile And Space Complex (PKMTR)
Object type
Payload
Rocket body
Debris
Shape & HBR
Cyl, 0.8 m
Radar Cross Section
1.257 m², Large (>1 m²)

Expand to show TLE details & history
Last TLE update: 21 hours ago

TLE from 21 hours ago
0 COSMOS 1909
1 18788U 88002A   25341.10333731  .00000060  00000-0  27342-3 0  9993
2 18788  82.6131  39.6034 0002394  65.3573 318.6575 12.62864438746564
Epoch: 2025-12-07T02:28Z
TLE epoch observation values (Epoch: 2025-12-07T02:28:48.343Z)
Latitude
23.80596°
Longitude
-70.45688°
Altitude
1,412.477 km
Speed
7.157 km/s
True Right ascension
02h 51m 27s
True Declination
23° 41' 24"
Sunlit
Object was in full shadow at epoch
Visualization orbit readout
Latitude
Unknown
Longitude
Unknown
Altitude
Unknown
Speed
Unknown
Apparent Right ascension
Unknown
Apparent Declination
Unknown
Sunlit
N/A
Visualization observer readout
Local Sidereal Time
21:44:12
Azimuth
Unknown
Elevation
Unknown
Doppler factor
Unknown
Orbital elements
Apogee altitude
1,410.326 km
Perigee altitude
1,406.598 km
Semi-major axis
7,786.599 km
Eccentricity
0.00024
Inclination
82.6131°
RAAN
39.6034°
Arg. of periapsis
65.3573°
True anomaly
318.63937°
Mean anomaly
318.6575°
Eccentric anomaly
318.64844°
Mean motion
3.15879 °/min
Orbital period
113.97 mins
BSTAR
0.00027342
Loading maneuver chart data...
Computing Atmospheric mass density...
Loading historical data...
Loading historical data...
Loading historical data...
Loading historical data...
Loading historical data...
Loading historical data...
Loading historical data...

Documentation

Showing up to 5 results
|